Погода в Живайкине

Россия / Ульяновская область     53°28′52″N   47°07′49″E
темп.,
°C
ветер,
м/с
пор.,
м/с
влажн.,
%
обл.,
%
осадки,
мм/ч
давл.,
гПа
погр.,
м
17 мая, вт
вт1701:00+8зсз5991100 0.3 1003397
04:00+8з489339 0.6 1003377
07:00+7з599023 0.1 1003424
10:00+10з577084 0.4 10031303
13:00+10з577199 2.2 10031351
16:00+11з5663100 3.3 10021626
19:00+10зсз3575100 1.0 1002495
22:00+6зюз11855 1.1 100210
18 мая, ср
ср1801:00+4з22935 0.0 100223
04:00+3зсз229710 0.0 100255
07:00+6зсз3692100 0.0 1003262
10:00+10зсз557386 0.1 10031049
13:00+11зсз6864100 0.1 10051378
16:00+9сз5883100 0.2 1007909
19:00+10зсз367991 0.2 1008700
22:00+7сз379477 0.5 1010297
19 мая, чт
чт1901:00+6зсз389147 0.1 1010393
04:00+5зсз41092100 0.1 1011587
07:00+6зсз588699 0.1 1011784
10:00+8зсз686779 0.3 10121418
13:00+9зсз6857100 0.1 10121433
16:00+10з7117162 0.3 10111377
19:00+7з488895 4.7 1012676
22:00+6зсз379334 4.9 1013298
20 мая, пт
пт2001:00+2зсз26960 0.0 1013148
04:00+2з25940 0.0 1014103
07:00+4зсз378573 0.0 1014331
10:00+4зсз369286 0.6 1014555
13:00+8сз677188 0.9 10141364
16:00+9ссз685333 1.6 10131873
19:00+7ссз58665 0.3 10141137
22:00+3сз39862 0.3 1015261
21 мая, сб
сб2101:00+2зсз23935 0.0 101563
04:00+1зсз22934 0.0 101537
07:00+4зсз35795 0.0 1015260
10:00+9сз35545 0.0 10131392
13:00+11сз3345100 0.0 10121942
16:00+11ссз2347100 0.1 10111746
19:00+9ссв3569100 0.4 1010235
22:00+6св4879100 0.6 1010311